Weather reports worldwide

Advertisment
Jaen, Spain (8417): temperature & dewpoint: 26.09.2020 00:00:00 - 02.10.2020 00:00:00 (CEST)Jaen, Spain (8417): wind speed: 26.09.2020 00:00:00 - 02.10.2020 00:00:00 (CEST)Jaen, Spain (8417): wind direction: 26.09.2020 00:00:00 - 02.10.2020 00:00:00 (CEST)Jaen, Spain (8417): reduced air pressure: 26.09.2020 00:00:00 - 02.10.2020 00:00:00 (CEST)Jaen, Spain (8417): visibility: 26.09.2020 00:00:00 - 02.10.2020 00:00:00 (CEST)Jaen, Spain (8417): precipitation: 26.09.2020 00:00:00 - 02.10.2020 00:00:00 (CEST)
Date & Time tt [°C] td [°C] ff [km/h] ff [kn] dd ppp [hPa] vv [km] rr [mm]
02.10.2020 00:00:00 - - - - - - - -
01.10.2020 23:00:00 20,8 10,3 16 9 W 1010,9 20 -
01.10.2020 22:00:00 21,4 8,6 13 7 WSW 1010,7 20 0,0
01.10.2020 21:00:00 21,7 7,5 13 7 SW 1010,5 20 0,0
01.10.2020 20:00:00 22,2 7,2 8 4 WSW 1010,4 20 -
01.10.2020 19:00:00 23,9 6,2 13 7 W 1009,8 20 0,0
01.10.2020 18:00:00 24,7 5,0 15 8 WNW 1010,1 20 0,0
01.10.2020 17:00:00 25,4 2,1 15 8 WNW 1010,4 20 -
01.10.2020 16:00:00 25,2 6,9 15 8 W 1010,6 19 0,0
01.10.2020 15:00:00 24,3 10,6 21 11 NW 1011,5 20 0,0
01.10.2020 14:00:00 24,3 9,1 21 11 NW 1012,0 20 -
01.10.2020 13:00:00 24,0 8,0 - - - 1012,9 20 0,0
01.10.2020 12:00:00 21,9 12,4 - - - 1013,4 20 0,0
01.10.2020 11:00:00 19,3 11,8 4 2 NNE 1014,4 20 -
01.10.2020 10:00:00 18,4 11,7 4 2 NNE 1014,4 20 0,0
01.10.2020 09:00:00 15,7 10,2 5 3 WNW 1015,0 20 0,0
01.10.2020 08:00:00 15,0 9,8 5 3 S 1014,6 20 -
01.10.2020 07:00:00 15,7 10,2 4 2 SSE 1014,5 20 0,0
01.10.2020 06:00:00 16,8 10,2 4 2 W 1014,2 20 0,0
01.10.2020 05:00:00 17,8 10,2 4 2 W 1013,9 20 -
01.10.2020 04:00:00 18,1 10,9 4 2 S 1014,7 20 0,0
01.10.2020 03:00:00 19,0 10,3 4 2 W 1014,9 20 0,0
01.10.2020 02:00:00 20,1 10,2 5 3 SSE 1014,9 20 -
01.10.2020 01:00:00 21,4 12,3 15 8 W 1014,8 20 0,0
01.10.2020 00:00:00 21,3 7,5 13 7 W 1015,1 20 0,0
30.09.2020 23:00:00 20,0 5,2 4 2 SW 1014,8 20 -
30.09.2020 22:00:00 21,2 7,1 2 1 SSE 1014,5 20 0,0
30.09.2020 21:00:00 21,0 6,9 5 3 WSW 1014,9 20 0,0
30.09.2020 20:00:00 22,5 7,1 4 2 S 1014,4 20 -
30.09.2020 19:00:00 24,0 7,2 9 5 NW 1014,1 20 0,0
30.09.2020 18:00:00 24,7 6,9 9 5 NW 1013,8 20 0,0
30.09.2020 17:00:00 24,7 6,4 11 6 NNW 1014,1 20 -
30.09.2020 16:00:00 24,3 6,1 13 7 NNW 1014,8 20 0,0
30.09.2020 15:00:00 24,4 6,6 5 3 N 1015,1 20 0,0
30.09.2020 14:00:00 23,2 6,9 4 2 N 1016,0 20 -
30.09.2020 13:00:00 22,5 6,7 5 3 NNE 1016,7 20 0,0
30.09.2020 12:00:00 21,8 5,6 8 4 N 1016,9 20 0,0
30.09.2020 11:00:00 20,3 5,5 4 2 N 1017,1 20 -
30.09.2020 10:00:00 18,9 5,7 2 1 ESE 1017,3 20 0,0
30.09.2020 09:00:00 16,7 5,0 0 0 N 1017,5 20 0,0
30.09.2020 08:00:00 16,9 4,2 2 1 SE 1017,1 20 -
30.09.2020 07:00:00 16,9 3,9 4 2 W 1016,9 20 0,0
30.09.2020 06:00:00 17,2 4,2 5 3 S 1017,0 20 0,0
30.09.2020 05:00:00 17,9 4,1 5 3 WSW 1016,6 20 -
30.09.2020 04:00:00 19,1 4,1 4 2 SW 1016,4 20 0,0
30.09.2020 03:00:00 20,0 4,1 2 1 SW 1016,0 20 0,0
30.09.2020 02:00:00 22,6 4,1 9 5 SW 1015,2 20 -
30.09.2020 01:00:00 22,3 4,3 9 5 SW 1015,6 20 0,0
30.09.2020 00:00:00 22,1 4,2 8 4 SW 1015,8 20 0,0
29.09.2020 23:00:00 22,5 4,0 9 5 SW 1015,5 20 -
29.09.2020 22:00:00 22,6 4,1 9 5 WSW 1015,5 20 0,0
29.09.2020 21:00:00 23,0 3,5 9 5 WSW 1014,9 20 0,0
29.09.2020 20:00:00 24,6 3,8 8 4 WSW 1013,9 20 -
29.09.2020 19:00:00 27,9 4,8 - - - 1012,7 20 0,0
29.09.2020 18:00:00 28,6 4,1 - - - 1012,6 20 0,0
29.09.2020 17:00:00 29,3 4,0 - - - 1012,6 20 -
29.09.2020 16:00:00 29,2 3,9 - - - 1013,0 20 0,0
29.09.2020 15:00:00 28,8 5,0 8 4 NNE 1014,0 20 0,0
29.09.2020 14:00:00 27,5 5,1 8 4 ENE 1015,1 20 -
29.09.2020 13:00:00 26,1 5,1 4 2 NNE 1015,9 20 0,0
29.09.2020 12:00:00 24,1 5,4 4 2 ENE 1016,5 20 0,0
29.09.2020 11:00:00 22,9 5,3 8 4 N 1016,6 20 -
29.09.2020 10:00:00 21,0 4,5 2 1 W 1016,8 20 0,0
29.09.2020 09:00:00 20,5 4,1 4 2 WNW 1016,3 20 0,0
29.09.2020 08:00:00 19,2 4,5 11 6 S 1016,1 20 -
29.09.2020 07:00:00 20,4 4,4 13 7 S 1015,4 20 0,0
29.09.2020 06:00:00 19,9 2,7 9 5 SSE 1015,4 20 0,0
29.09.2020 05:00:00 20,2 2,5 13 7 SSE 1015,2 20 -
29.09.2020 04:00:00 20,1 -0,6 11 6 S 1015,4 20 0,0
29.09.2020 03:00:00 19,3 0,3 4 2 S 1015,9 20 0,0
29.09.2020 02:00:00 19,6 1,5 4 2 WNW 1015,9 20 -
29.09.2020 01:00:00 19,9 1,8 11 6 S 1015,8 20 0,0
29.09.2020 00:00:00 20,7 0,5 5 3 NW 1015,9 20 0,0
28.09.2020 23:00:00 22,4 -0,4 11 6 S 1015,1 20 -
28.09.2020 22:00:00 21,8 -0,3 11 6 S 1015,2 20 0,0
28.09.2020 21:00:00 21,8 0,3 9 5 S 1014,8 20 0,0
28.09.2020 20:00:00 22,7 1,1 4 2 SW 1014,3 20 -
28.09.2020 19:00:00 25,4 0,8 - - - 1013,2 20 0,0
28.09.2020 18:00:00 26,0 2,6 - - - 1012,9 20 0,0
28.09.2020 17:00:00 26,5 3,0 - - - 1013,0 20 -
28.09.2020 16:00:00 26,7 4,4 5 3 N 1013,5 20 0,0
28.09.2020 15:00:00 26,1 4,5 9 5 N 1014,6 20 0,0
28.09.2020 14:00:00 25,4 4,5 5 3 ENE 1015,5 20 -
28.09.2020 13:00:00 23,8 4,2 5 3 E 1016,2 20 0,0
28.09.2020 12:00:00 22,5 5,0 5 3 E 1016,7 20 0,0
28.09.2020 11:00:00 20,7 3,8 4 2 NE 1017,0 20 -
28.09.2020 10:00:00 19,7 5,0 4 2 ESE 1016,7 20 0,0
28.09.2020 09:00:00 16,7 6,8 4 2 SSE 1016,6 20 0,0
28.09.2020 08:00:00 14,5 6,1 2 1 SE 1016,5 20 -
28.09.2020 07:00:00 14,0 6,1 4 2 SSE 1016,4 20 0,0
28.09.2020 06:00:00 14,9 5,9 2 1 SSE 1016,2 20 0,0
28.09.2020 05:00:00 17,4 6,0 4 2 SE 1015,6 20 -
28.09.2020 04:00:00 17,3 6,5 9 5 S 1015,7 20 0,0
28.09.2020 03:00:00 15,9 6,3 4 2 SSW 1016,3 20 0,0
28.09.2020 02:00:00 16,9 6,1 4 2 NNW 1016,2 20 -
28.09.2020 01:00:00 19,7 6,4 9 5 S 1015,1 20 0,0
28.09.2020 00:00:00 17,9 6,4 4 2 SW 1015,6 20 0,0
27.09.2020 23:00:00 18,2 6,7 4 2 SW 1015,1 20 -
27.09.2020 22:00:00 18,4 6,6 4 2 SW 1014,5 20 0,0
27.09.2020 21:00:00 19,2 6,0 5 3 SSW 1013,8 20 0,0
27.09.2020 20:00:00 21,3 5,6 4 2 S 1013,1 20 -
27.09.2020 19:00:00 23,3 5,7 5 3 NNE 1012,2 20 0,0
27.09.2020 18:00:00 23,6 6,4 8 4 ESE 1012,0 20 0,0
27.09.2020 17:00:00 24,2 7,3 9 5 N 1011,9 20 -
27.09.2020 16:00:00 24,2 7,8 5 3 N 1012,2 20 0,0
27.09.2020 15:00:00 23,8 7,8 5 3 ENE 1012,9 20 0,0
27.09.2020 14:00:00 22,6 7,9 5 3 SSE 1013,9 20 -
27.09.2020 13:00:00 21,6 8,5 4 2 NE 1014,6 20 0,0
27.09.2020 12:00:00 20,3 8,6 8 4 N 1015,0 20 0,0
27.09.2020 11:00:00 18,8 8,7 4 2 E 1014,9 20 -
27.09.2020 10:00:00 16,6 8,3 4 2 NE 1015,1 20 0,0
27.09.2020 09:00:00 15,3 7,3 5 3 SE 1015,0 20 0,0
27.09.2020 08:00:00 13,9 6,5 4 2 WSW 1015,3 20 -
27.09.2020 07:00:00 14,9 8,1 9 5 W 1014,8 20 0,0
27.09.2020 06:00:00 15,3 6,8 2 1 W 1014,5 20 0,0
27.09.2020 05:00:00 15,9 6,3 5 3 W 1014,4 20 -
27.09.2020 04:00:00 16,8 5,4 13 7 WNW 1014,9 20 0,0
27.09.2020 03:00:00 17,0 5,0 11 6 W 1015,4 20 0,0
27.09.2020 02:00:00 17,5 4,1 11 6 W 1015,9 20 -
27.09.2020 01:00:00 17,9 3,4 13 7 W 1016,4 20 0,0
27.09.2020 00:00:00 18,3 3,7 15 8 W 1016,6 20 0,0
26.09.2020 23:00:00 18,8 3,8 13 7 W 1016,8 20 -
26.09.2020 22:00:00 20,0 3,6 13 7 W 1016,5 20 0,0
26.09.2020 21:00:00 20,1 3,7 13 7 W 1016,3 20 0,0
26.09.2020 20:00:00 21,2 3,8 11 6 W 1016,0 20 -
26.09.2020 19:00:00 22,5 3,6 9 5 WNW 1015,9 20 0,0
26.09.2020 18:00:00 23,0 3,0 13 7 NW 1016,0 20 0,0
26.09.2020 17:00:00 23,6 2,4 11 6 NNW 1016,0 20 -
26.09.2020 16:00:00 23,9 2,1 8 4 NNE 1016,7 20 0,0
26.09.2020 15:00:00 22,9 2,4 9 5 N 1018,0 20 0,0
26.09.2020 14:00:00 22,5 2,6 9 5 NNE 1019,1 20 -
26.09.2020 13:00:00 21,2 2,9 5 3 ENE 1020,0 20 0,0
26.09.2020 12:00:00 19,4 2,7 8 4 ESE 1020,6 20 0,0
26.09.2020 11:00:00 18,0 2,7 4 2 E 1021,7 20 -
26.09.2020 10:00:00 16,9 2,1 8 4 ESE 1021,2 20 0,0
26.09.2020 09:00:00 15,4 2,2 4 2 ESE 1021,7 20 0,0
26.09.2020 08:00:00 13,6 1,6 5 3 SSE 1021,6 20 -
26.09.2020 07:00:00 14,3 1,5 8 4 SSE 1021,3 9 0,0
26.09.2020 06:00:00 14,6 1,8 8 4 SSE 1021,6 20 0,0
26.09.2020 05:00:00 14,7 1,6 8 4 SE 1021,6 19 -
26.09.2020 04:00:00 14,6 1,8 5 3 SSE 1021,9 20 0,0
26.09.2020 03:00:00 14,0 2,2 4 2 WSW 1022,5 20 0,0
26.09.2020 02:00:00 15,0 2,2 5 3 WSW 1023,1 20 -
26.09.2020 01:00:00 16,7 1,9 9 5 W 1022,9 20 0,0
26.09.2020 00:00:00 17,3 2,1 9 5 W 1022,7 20 0,0

tt = temperature
td = dewpoint
ff = wind speed
dd = wind direction
ppp = reduced air pressure
vv = visibility
rr = precipitation

Next stations